This demonstration page uses our WeatherBlox Daily Observations layout. Learn more.

39.92423, -83.80882

Hourly Observations for September 12, 2018

Temp ( °F °C ) Dew Point ( °F °C ) Humidity (%) Winds ( mph kmh ) Pressure ( in mb ) Visibility ( mi km ) Precip ( " mm )
12:56 am 00:56 Cloudy 63 17.2 61 16.1 93 93 E 3 6 30.18 1022 10 16.0934 0 0
1:56 am 01:56 Cloudy 62 16.7 62 16.7 100 100 E 3 6 30.17 1022 10 16.0934 0 0
2:56 am 02:56 Cloudy 62 16.7 62 16.7 100 100 Calm 30.16 1022 10 16.0934 0 0
3:56 am 03:56 Cloudy 62 16.7 62 16.7 100 100 Calm 30.16 1021 10 16.0934 0 0
4:56 am 04:56 Cloudy 62 16.7 61 16.1 96 96 NNE 3 6 30.17 1022 10 16.0934 0 0
5:56 am 05:56 Cloudy 62 16.7 62 16.7 100 100 NE 3 6 30.18 1022 10 16.0934 0 0
6:56 am 06:56 Cloudy 62 16.7 62 16.7 100 100 ENE 5 7 30.19 1023 10 16.0934 0 0
7:56 am 07:56 Cloudy 62 16.7 62 16.7 100 100 NE 6 9 30.21 1023 10 16.0934 0 0
8:56 am 08:56 Cloudy 63 17.2 62 16.7 97 97 ENE 5 7 30.22 1023 10 16.0934 0 0
9:56 am 09:56 Cloudy 64 17.8 62 16.7 93 93 NE 6 9 30.22 1023 10 16.0934 0 0
10:56 am 10:56 Cloudy 67 19.4 63 17.2 87 87 NNE 6 9 30.22 1024 10 16.0934 0 0
11:56 am 11:56 Mostly Cloudy 71 21.7 59 15 66 66 VRB 7 11 30.21 1023 10 16.0934 0 0
12:56 pm 12:56 Cloudy 72 22.2 59 15 64 64 ENE 7 11 30.2 1023 10 16.0934 0 0
1:56 pm 13:56 Cloudy 73 22.8 59 15 62 62 Calm 30.2 1023 10 16.0934 0 0
2:56 pm 14:56 Cloudy 73 22.8 60 15.6 64 64 S 6 9 30.19 1022 10 16.0934 0 0
3:56 pm 15:56 Partly Cloudy 75 23.9 61 16.1 62 62 SSE 6 9 30.16 1022 10 16.0934 0 0
4:56 pm 16:56 Partly Cloudy 75 23.9 60 15.6 60 60 SE 5 7 30.16 1021 10 16.0934 0 0
5:56 pm 17:56 Mostly Sunny 75 23.9 61 16.1 62 62 SSW 5 7 30.16 1021 10 16.0934 0 0
6:56 pm 18:56 Partly Cloudy 74 23.3 62 16.7 67 67 NW 5 7 30.16 1022 10 16.0934 0 0
7:56 pm 19:56 Clear 68 20 62 16.7 81 81 Calm 30.16 1021 10 16.0934 0 0
8:56 pm 20:56 Clear 63 17.2 62 16.7 97 97 Calm 30.18 1022 10 16.0934 0 0
9:56 pm 21:56 Clear 63 17.2 61 16.1 93 93 Calm 30.18 1022 10 16.0934 0 0
10:56 pm 22:56 Clear 61 16.1 61 16.1 100 100 N 5 7 30.18 1022 10 16.0934 0 0
11:56 pm 23:56 Clear 61 16.1 61 16.1 100 100 NE 5 7 30.19 1022 10 16.0934 0 0

Powered by AerisWeather